Retour au catalogue

ARIANE 5 R/B

ActifHEO
NORAD 38553·ROCKET BODY·🇫🇷 France

Lancé Jul 5, 2012 depuis Guiana Space Centre

Loading…

Prochains Passages (prochaines 24 heures)

TLE

FraisSource: Space-Track

Époque: Sep 14, 2026, 03:06 UTC

1 38553U 12035C   26257.12978205  .00002587  00000-0  68572-3 0  9994
2 38553   6.4141 310.1192 7074370   7.9420 359.1766  2.54383915124430

Suivez ARIANE 5 R/B en temps réel avec AllMySat

Download on the App Store